1373500832798,19.2998
1373500892798,19.2997
1373500952798,19.2806
1373501012798,19.2553
1373501072798,19.2780
1373501132798,19.2712
1373501192798,19.2942
1373501252798,19.2836
1373501312798,19.2532
1373501372798,19.3101
1373501432798,19.2321
1373501492798,19.3066
1373501552798,19.2635
1373501612798,19.2699
1373501672798,19.2784
1373501732798,19.3011
1373501792798,19.2705
1373501852798,19.2466
1373501912798,19.1790
1373501972798,19.2398
1373502032798,19.2160
1373502092798,19.1739
1373502152798,19.2205
1373502212798,19.2390
1373502272798,19.2461
1373502332798,19.2253
1373502392798,19.2018
1373502452798,19.2440
1373502512798,19.2275
1373502572798,19.2246
1373502632798,19.2604
1373502692798,19.2516
1373502752798,19.2785
1373502812798,19.2521
1373502872798,19.2244
1373502932798,19.3052
1373502992798,19.2438
1373503052798,19.3065
1373503112798,19.2607
1373503172798,19.2175
1373503232798,19.2589
1373503292798,19.2368
1373503352798,19.1896
1373503412798,19.2337
1373503472798,19.1789
1373503532798,19.2074
1373503592798,19.2241
1373503652798,19.1895
1373503712798,19.1575
1373503772798,19.2372
1373503832798,19.2031
1373503892798,19.1993
1373503952798,19.1760
1373504012798,19.2602
1373504072798,19.2453
1373504132798,19.2762
1373504192798,19.2657
1373504252798,19.2741
1373504312798,19.2618
1373504372798,19.2099
1373504432808,19.2030
1373504492808,19.2457
1373504552808,19.2010
1373504612808,19.2026
1373504672808,19.1806
1373504732808,19.2048
1373504792808,19.2014
1373504852808,19.2407
1373504912808,19.1680
1373504972808,19.1150
1373505032808,19.2049
1373505092808,19.1806
1373505152808,19.2046
1373505212808,19.2298
1373505272808,19.2157
1373505332808,19.2121
1373505392808,19.1541
1373505452808,19.1955
1373505512808,19.2078
1373505572808,19.1555
1373505632808,19.1267
1373505692808,19.1805
1373505752808,19.1481
1373505812808,19.2138
1373505872808,19.1423
1373505932808,19.1719
1373505992808,19.1522
1373506052808,19.1227
1373506112808,19.1117
1373506172808,19.1100
1373506232808,19.1803
1373506292808,19.0506
1373506352808,19.2198
1373506412808,19.1362
1373506472808,19.0766
1373506532808,19.1496
1373506592808,19.1517
1373506652808,19.1659
1373506712808,19.1358
1373506772808,19.1596
1373506832808,19.2244
1373506892808,19.1658
1373506952808,19.2191
1373507012808,19.1913
1373507072808,19.1835
1373507132808,19.1816
1373507192808,19.1906
1373507252808,19.1900
1373507312808,19.1998
1373507372808,19.3468
1373507432808,19.3967
1373507492808,19.4824
1373507552808,19.4187
1373507612808,19.4555
1373507672808,19.4088
1373507732808,19.4735
1373507792808,19.5726
1373507852808,19.6295
1373507912808,19.6301
1373507972808,19.6327
1373508032817,19.5984
1373508092817,19.6000
1373508152817,19.6671
1373508212817,19.5710
1373508272817,19.5686
1373508332817,19.5057
1373508392817,19.4068
1373508452817,19.4589
1373508512817,19.3290
1373508572817,19.3999
1373508632817,19.3538
1373508692817,19.2744
1373508752817,19.2116
1373508812817,19.2654
1373508872817,19.3300
1373508932817,19.2922
1373508992817,19.3371
1373509052817,19.3351
1373509112817,19.2680
1373509172817,19.2898
1373509232817,19.2340
1373509292817,19.2616
1373509352817,19.2355
1373509412817,19.1972
1373509472817,19.1965
1373509532817,19.2612
1373509592817,19.2073
1373509652817,19.2472
1373509712817,19.2330
1373509772817,19.2316
1373509832817,19.2251
1373509892817,19.2108
1373509952817,19.2598
1373510012817,19.2347
1373510072817,19.2791
1373510132817,19.1606
1373510192817,19.2119
1373510252817,19.1861
1373510312817,19.2452
1373510372817,19.1869
1373510432817,19.2363
1373510492817,19.2238
1373510552817,19.1704
1373510612817,19.2719
1373510672817,19.2485
1373510732817,19.2039
1373510792817,19.2578
1373510852817,19.1911
1373510912817,19.1289
1373510972817,19.1536
1373511032817,19.1608
1373511092817,19.1787
1373511152817,19.1683
1373511212817,19.1863
1373511272817,19.1341
1373511332817,19.1403
1373511392817,19.1675
1373511452817,19.1676
1373511512817,19.1497
1373511572817,19.1201
1373511632827,19.1893
1373511692827,19.1366
1373511752827,19.1864
1373511812827,19.2138
1373511872827,19.2113
1373511932827,19.2231
1373511992827,19.2324
1373512052827,19.2353
1373512112827,19.2068
1373512172827,19.2260
1373512232827,19.1689
1373512292827,19.1612
1373512352827,19.2267
1373512412827,19.1888
1373512472827,19.2009
1373512532827,19.1800
1373512592827,19.2011
1373512652827,19.2353
1373512712827,19.1983
1373512772827,19.1749
1373512832827,19.1535
1373512892827,19.2129
1373512952827,19.2605
1373513012827,19.1600
1373513072827,19.1806
1373513132827,19.1866
1373513192827,19.1534
1373513252827,19.1858
1373513312827,19.2078
1373513372827,19.2435
1373513432827,19.2522
1373513492827,19.2185
1373513552827,19.1442
1373513612827,19.2353
1373513672827,19.2124
1373513732827,19.1648
1373513792827,19.2258
1373513852827,19.1862
1373513912827,19.1381
1373513972827,19.1568
1373514032827,19.1756
1373514092827,19.1569
1373514152827,19.1701
1373514212827,19.1495
1373514272827,19.1402
1373514332827,19.2602
1373514392827,19.1842
1373514452827,19.1918
1373514512827,19.2007
1373514572827,19.1218
1373514632827,19.1851
1373514692827,19.2981
1373514752827,19.2009
1373514812827,19.2087
1373514872827,19.2537
1373514932827,19.2206
1373514992827,19.2300
1373515052827,19.2576
1373515112827,19.2548
1373515172827,19.2579
1373515232836,19.1875
1373515292836,19.2311
1373515352836,19.1763
1373515412836,19.2089
1373515472836,19.1954
1373515532836,19.2108
1373515592836,19.2387
1373515652836,19.2782
1373515712836,19.3147
1373515772836,19.2872
1373515832836,19.1786
1373515892836,19.1796
1373515952836,19.1832
1373516012836,19.1378
1373516072836,19.1929
1373516132836,19.1986
1373516192836,19.2002
1373516252836,19.1890
1373516312836,19.1623
1373516372836,19.1915
1373516432836,19.2014
1373516492836,19.1076
1373516552836,19.1411
1373516612836,19.2205
1373516672836,19.0897
1373516732836,19.1779
1373516792836,19.1571
1373516852836,19.1281
1373516912836,19.1140
1373516972836,19.1704
1373517032836,19.1643
1373517092836,19.1795
1373517152836,19.2062
1373517212836,19.2101
1373517272836,19.2162
1373517332836,19.2684
1373517392836,19.2044
1373517452836,19.2307
1373517512836,19.1974
1373517572836,19.2106
1373517632836,19.1444
1373517692836,19.1514
1373517752836,19.2096
1373517812836,19.2064
1373517872836,19.1299
1373517932836,19.2219
1373517992836,19.2646
1373518052836,19.2328
1373518112836,19.2035
1373518172836,19.2781
1373518232836,19.2634
1373518292836,19.1965
1373518352836,19.2790
1373518412836,19.2057
1373518472836,19.2002
1373518532836,19.2299
1373518592836,19.1899
1373518652836,19.1838
1373518712836,19.1683
1373518772836,19.1550
1373518832845,19.1940
1373518892845,19.2154
1373518952845,19.1621
1373519012845,19.1714
1373519072845,19.2077
1373519132845,19.1893
1373519192845,19.1341
1373519252845,19.1706
1373519312845,19.1789
1373519372845,19.2150
1373519432845,19.1720
1373519492845,19.1783
1373519552845,19.1258
1373519612845,19.1612
1373519672845,19.2297
1373519732845,19.2233
1373519792845,19.1270
1373519852845,19.1339
1373519912845,19.2209
1373519972845,19.1839
1373520032845,19.1244
1373520092845,19.1790
1373520152845,19.1344
1373520212845,19.1045
1373520272845,19.1802
1373520332845,19.1178
1373520392845,19.1302
1373520452845,19.1529
1373520512845,19.1077
1373520572845,19.1015
1373520632845,19.1377
1373520692845,19.1170
1373520752845,19.1839
1373520812845,19.1765
1373520872845,19.1134
1373520932845,19.1285
1373520992845,19.0987
1373521052845,19.0953
1373521112845,19.1279
1373521172845,19.1041
1373521232845,19.1259
1373521292845,19.0884
1373521352845,19.1393
1373521412845,19.1237
1373521472845,19.0505
1373521532845,19.1085
1373521592845,19.0948
1373521652845,19.1351
1373521712845,19.0611
1373521772845,19.0330
1373521832845,19.1266
1373521892845,19.1726
1373521952845,19.1504
1373522012845,19.0903
1373522072845,19.0230
1373522132845,19.0528
1373522192845,19.1247
1373522252845,19.0284
1373522312845,19.0523
1373522372845,19.1006
1373522432854,19.1304
1373522492854,19.1257
1373522552854,19.1558
1373522612854,19.0807
1373522672854,19.1679
1373522732854,19.1243
1373522792854,19.1468
1373522852854,19.0756
1373522912854,19.1043
1373522972854,19.1316
1373523032854,19.0907
1373523092854,19.1444
1373523152854,19.1282
1373523212854,19.0429
1373523272854,19.0369
1373523332854,19.0978
1373523392854,19.0784
1373523452854,19.1235
1373523512854,19.0454
1373523572854,19.1565
1373523632854,19.0686
1373523692854,19.0410
1373523752854,18.9944
1373523812854,19.0781
1373523872854,18.9869
1373523932854,19.0083
1373523992854,19.1488
1373524052854,19.0895
1373524112854,19.1034
1373524172854,19.1139
1373524232854,19.1014
1373524292854,19.0764
1373524352854,19.0332
1373524412854,19.0704
1373524472854,18.9730
1373524532854,19.0652
1373524592854,19.0456
1373524652854,19.1006
1373524712854,19.0245
1373524772854,19.0296
1373524832854,19.0416
1373524892854,19.0492
1373524952854,19.0396
1373525012854,19.1042
1373525072854,19.0877
1373525132854,19.0787
1373525192854,19.1002
1373525252854,19.0433
1373525312854,19.0921
1373525372854,19.0537
1373525432854,19.0634
1373525492854,19.1407
1373525552854,19.1324
1373525612854,19.0866
1373525672854,19.1526
1373525732854,19.1480
1373525792854,19.0613
1373525852854,19.0800
1373525912854,19.0629
1373525972854,19.0535
1373526032863,19.0882
1373526092863,19.0395
1373526152863,19.0509
1373526212863,19.0596
1373526272863,19.0795
1373526332863,19.0625
1373526392863,19.1691
1373526452863,19.0733
1373526512863,19.0631
1373526572863,19.1136
1373526632863,19.1035
1373526692863,18.3196
1373527232863,19.1874
1373527292863,18.6118
1373527352863,19.1551
1373527412863,19.1403
1373527472863,19.0765
1373527532863,19.1072
1373527592863,19.1568
1373527652863,19.1166
1373527712863,19.1208
1373527772863,19.1870
1373527832863,19.1224
1373527892863,19.1094
1373527952863,19.1853
1373528012863,19.0907
1373528072863,19.1231
1373528132863,19.1552
1373528192863,19.1048
1373528252863,19.0860
1373528312863,19.1379
1373528372863,19.1966
1373528432863,19.1307
1373528492863,19.1690
1373528552863,19.1640
1373528612863,19.0974
1373528672863,19.1716
1373528732863,19.1354
1373528792863,19.1036
1373528852863,19.1891
1373528912863,19.0755
1373528972863,19.1649
1373529032863,19.1530
1373529092863,19.1721
1373529152863,19.1786
1373529212863,19.1510
1373529272863,19.1420
1373529332863,19.1445
1373529392863,19.1001
1373529452863,19.1558
1373529512863,19.2053
1373529572863,19.1934
1373529632872,19.1657
1373529692872,19.1730
1373529752872,19.1513
1373529812872,19.1775
1373529872872,19.1335
1373529932872,19.1208
1373529992872,19.1192
1373530052872,19.1461
1373530112872,19.1550
1373530172872,19.2478
1373530232872,19.2035
1373530292872,19.1706
1373530352872,19.1980
1373530412872,19.2017
1373530472872,19.1373
1373530532872,19.2287
1373530592872,19.2723
1373530652872,19.2833
1373530712872,19.3542
1373530772872,19.2254
1373530832872,19.3053
1373530892872,19.2968
1373530952872,19.2994
1373531012872,19.2738
1373531072872,19.2327
1373531132872,19.2473
1373531192872,19.1998
1373531252872,19.1759
1373531312872,19.1891
1373531372872,19.2205
1373531432872,19.2720
1373531492872,19.1891
1373531552872,19.2104
1373531612872,19.1949
1373531672872,19.1851
1373531732872,19.1850
1373531792872,19.1674
1373531852872,19.1028
1373531912872,19.2022
1373531972872,19.2252
1373532032872,19.1660
1373532092872,19.2333
1373532152872,19.1809
1373532212872,19.2427
1373532272872,19.1878
1373532332872,19.1739
1373532392872,19.2639
1373532452872,19.2262
1373532512872,19.2749
1373532572872,19.1971
1373532632872,19.2692
1373532692872,19.2537
1373532752872,19.2395
1373532812872,19.3012
1373532872872,19.3759
1373532932872,19.1971
1373532992872,19.3050
1373533052872,19.2365
1373533112872,19.2258
1373533172872,19.2374
1373533232881,19.2286
1373533292881,19.2107
1373533352881,19.2331
1373533412881,19.2495
1373533472881,19.2746
1373533532881,19.2877
1373533592881,19.2941
1373533652881,19.3742
1373533712881,19.4674
1373533772881,19.4346
1373533832881,19.4281
1373533892881,19.3693
1373533952881,19.2849
1373534012881,19.3216
1373534072881,19.3418
1373534132881,19.3167
1373534192881,19.3390
1373534252881,19.2527
1373534312881,19.2719
1373534372881,19.2847
1373534432881,19.2897
1373534492881,19.2570
1373534552881,19.2674
1373534612881,19.2353
1373534672881,19.2838
1373534732881,19.2873
1373534792881,19.3067
1373534852881,19.2451
1373534912881,19.3202
1373534972881,19.2929
1373535032881,19.2634
1373535092881,19.3317
1373535152881,19.2638
1373535212881,19.2578
1373535272881,19.2984
1373535332881,19.3688
1373535392881,19.3181
1373535452881,19.2359
1373535512881,19.2026
1373535572881,19.4230
1373535632881,19.2221
1373535692881,19.2552
1373535752881,19.2780
1373535812881,19.3250
1373535872881,19.4144
1373535932881,19.3338
1373535992881,19.3108
1373536052881,19.3411
1373536112881,19.3426
1373536172881,19.3155
1373536232881,19.3343
1373536292881,19.2956
1373536352881,19.2896
1373536412881,19.3284
1373536472881,19.3817
1373536532881,19.3834
1373536592881,19.4034
1373536652881,19.3851
1373536712881,19.4295
1373536772881,19.4440
1373536832891,19.3955
1373536892891,19.4700
1373536952891,19.4567
1373537012891,19.4220
1373537072891,19.4033
1373537132891,19.4768
1373537192891,19.4859
1373537252891,19.4134
1373537312891,19.4493
1373537372891,19.4396
1373537432891,19.4450
1373537492891,19.4631
1373537552891,19.4573
1373537612891,19.4619
1373537672891,19.5154
1373537732891,19.5288
1373537792891,19.4491
1373537852891,19.3893
1373537912891,19.4323
1373537972891,19.4044
1373538032891,19.3717
1373538092891,19.4770
1373538152891,19.4418
1373538212891,19.4173
1373538272891,19.4250
1373538332891,19.4302
1373538392891,19.4511
1373538452891,19.4354
1373538512891,19.3933
1373538572891,19.4100
1373538632891,19.3879
1373538692891,19.3441
1373538752891,19.3398
1373538812891,19.3541
1373538872891,19.3547
1373538932891,19.2874
1373538992891,19.3781
1373539052891,19.3063
1373539112891,19.2571
1373539172891,19.3334
1373539232891,19.3113
1373539292891,19.3440
1373539352891,19.3198
1373539412891,19.3267
1373539472891,19.3234
1373539532891,19.3623
1373539592891,19.3070
1373539652891,19.3764
1373539712891,19.4242
1373539772891,19.3970
1373539832891,19.3114
1373539892891,19.4399
1373539952891,19.3749
1373540012891,19.3591
1373540072891,19.3517
1373540132891,19.3258
1373540192891,19.3431
1373540252891,19.4012
1373540312891,19.3461
1373540372891,19.3537
1373540432900,19.3237
1373540492900,19.2910
1373540552900,19.3482
1373540612900,19.4003
1373540672900,19.3404
1373540732900,19.2926
1373540792900,19.3481
1373540852900,19.3435
1373540912900,19.3932
1373540972900,19.3250
1373541032900,19.4098
1373541092900,19.3714
1373541152900,19.3413
1373541212900,19.3810
1373541272900,19.2779
1373541332900,19.2902
1373541392900,19.4387
1373541452900,19.4231
1373541512900,19.3937
1373541572900,19.4365
1373541632900,19.4801
1373541692900,19.4532
1373541752900,19.5136
1373541812900,19.4445
1373541872900,19.4101
1373541932900,19.4273
1373541992900,19.4092
1373542052900,19.4458
1373542112900,19.4769
1373542172900,19.3565
1373542232900,19.4059
1373542292900,19.4178
1373542352900,19.4060
1373542412900,19.3779
1373542472900,19.4440
1373542532900,19.4490
1373542592900,19.4416
1373542652900,19.4358
1373542712900,19.3544
1373542772900,19.4482
1373542832900,19.4609
1373542892900,19.4017
1373542952900,19.3690
1373543012900,19.3994
1373543072900,19.4261
1373543132900,19.4674
1373543192900,19.3839
1373543252900,19.3262
1373543312900,19.3958
1373543372900,19.4010
1373543432900,19.3971
1373543492900,19.3420
1373543552900,19.4128
1373543612900,19.4282
1373543672900,19.4135
1373543732900,19.4389
1373543792900,19.3837
1373543852900,19.4235
1373543912900,19.4263
1373543972900,19.3710
1373544032909,19.4355
1373544092909,19.4360
1373544152909,19.3510
1373544212909,19.3312
1373544272909,19.3506
1373544332909,19.3547
1373544392909,19.3737
1373544452909,19.3784
1373544512909,19.3960
1373544572909,19.3841
1373544632909,19.3426
1373544692909,19.3549
1373544752909,19.2924
1373544812909,19.4337
1373544872909,19.3497
1373544932909,19.2470
1373544992909,19.3720
1373545052909,19.4281
1373545112909,19.4248
1373545172909,19.4670
1373545232909,19.4106
1373545292909,19.4002
1373545352909,19.4297
1373545412909,19.4122
1373545472909,19.4823
1373545532909,19.3917
1373545592909,19.4500
1373545652909,19.4207
1373545712909,19.4943
1373545772909,19.4538
1373545832909,19.3596
1373545892909,19.3897
1373545952909,19.4172
1373546012909,19.4678
1373546072909,19.4382
1373546132909,19.3724
1373546192909,19.3513
1373546252909,19.4109
1373546312909,19.4073
1373546372909,19.3434
1373546432909,19.4499
1373546492909,19.3428
1373546552909,19.3988
1373546612909,19.4521
1373546672909,19.3954
1373546732909,19.4492
1373546792909,19.4005
1373546852909,19.3921
1373546912909,19.4040
1373546972909,19.4013
1373547032909,19.4008
1373547092909,19.4186
1373547152909,19.4353
1373547212909,19.3901
1373547272909,19.4217
1373547332909,19.4146
1373547392909,19.3495
1373547452909,19.3700
1373547512909,19.3888
1373547572909,19.3992
1373547632918,19.3164
1373547692918,19.3901
1373547752918,19.3568
1373547812918,19.3333
1373547872918,19.3396
1373547932918,19.3577
1373547992918,19.3192
1373548052918,19.3224
1373548112918,19.3622
1373548172918,19.3887
1373548232918,19.3945
1373548292918,19.3133
1373548352918,19.4005
1373548412918,19.3781
1373548472918,19.4063
1373548532918,19.3977
1373548592918,19.3690
1373548652918,19.3997
1373548712918,19.3769
1373548772918,19.4554
1373548832918,19.5580
1373548892918,19.5628
1373548952918,19.5055
1373549012918,19.4709
1373549072918,19.3968
1373549132918,19.4454
1373549192918,19.4403
1373549252918,19.4294
1373549312918,19.5034
1373549372918,19.3744
1373549432918,19.3889
1373549492918,19.4117
1373549552918,19.3846
1373549612918,19.3262
1373549672918,19.3175
1373549732918,19.2933
1373549792918,19.3175
1373549852918,19.3590
1373549912918,19.3158
1373549972918,19.3109
1373550032918,19.2792
1373550092918,19.2641
1373550152918,19.2664
1373550212918,19.2405
1373550272918,19.3444
1373550332918,19.2731
1373550392918,19.3293
1373550452918,19.3886
1373550512918,19.2823
1373550572918,19.2835
1373550632918,19.3307
1373550692918,19.3523
1373550752918,19.3245
1373550812918,19.3579
1373550872918,19.2663
1373550932918,19.3023
1373550992918,19.3752
1373551052918,19.3333
1373551112918,19.3617
1373551172918,19.3357
1373551232927,19.3247
1373551292927,19.2999
1373551352927,19.3328
1373551412927,19.3108
1373551472927,19.2686
1373551532927,19.3012
1373551592927,19.3397
1373551652927,19.3404
1373551712927,19.3363
1373551772927,19.2856
1373551832927,19.2630
1373551892927,19.3284
1373551952927,19.3075
1373552012927,19.3441
1373552072927,19.2761
1373552132927,19.3116
1373552192927,19.4091
1373552252927,19.3505
1373552312927,19.3609
1373552372927,19.3424
1373552432927,19.3711
1373552492927,19.3399
1373552552927,19.3717
1373552612927,19.3296
1373552672927,19.2640
1373552732927,19.2704
1373552792927,19.4458
1373552852927,19.3120
1373552912927,19.3057
1373552972927,19.3948
1373553032927,19.3462
1373553092927,19.3718
1373553152927,19.3774
1373553212927,19.3822
1373553272927,19.3603
1373553332927,19.4049
1373553392927,19.3945
1373553452927,19.4009
1373553512927,19.4325
1373553572927,19.3776
1373553632927,19.3703
1373553692927,19.3853
1373553752927,19.3872
1373553812927,19.4063
1373553872927,19.3432
1373553932927,19.3584
1373553992927,19.3601
1373554052927,19.3484
1373554112927,19.3548
1373554172927,19.4376
1373554232927,19.3986
1373554292927,19.3705
1373554352927,19.4048
1373554412927,19.3996
1373554472927,19.3846
1373554532927,19.4638
1373554592927,19.4108
1373554652927,19.3509
1373554712927,19.4224
1373554772927,19.3683
1373554832936,19.3967
1373554892936,19.3636
1373554952936,19.2771
1373555012936,19.3728
1373555072936,19.3325
1373555132936,19.3609
1373555192936,19.3997
1373555252936,19.3674
1373555312936,19.4007
1373555372936,19.4079
1373555432936,19.3734
1373555492936,19.3202
1373555552936,19.3098
1373555612936,19.3875
1373555672936,19.3073
1373555732936,19.3094
1373555792936,19.3717
1373555852936,19.3180
1373555912936,19.3779
1373555972936,19.2981
1373556032936,19.2886
1373556092936,19.2462
1373556152936,19.2618
1373556212936,19.3538
1373556272936,19.3711
1373556332936,19.4361
1373556392936,19.3738
1373556452936,19.3375
1373556512936,19.3856
1373556572936,19.4179
1373556632936,19.3367
1373556692936,19.3082
1373556752936,19.3211
1373556812936,19.2661
1373556872936,19.3434
1373556932936,19.3038
1373556992936,19.3356
1373557052936,19.2931
1373557112936,19.3160
1373557172936,19.3871
1373557232936,19.2853
1373557292936,19.3516
1373557352936,19.3104
1373557412936,19.3474
1373557472936,19.2939
1373557532936,19.3540
1373557592936,19.3065
1373557652936,19.4030
1373557712936,19.4002
1373557772936,19.3390
1373557832936,19.3505
1373557892936,19.3438
1373557952936,19.3455
1373558012936,19.3359
1373558072936,19.3614
1373558132936,19.3548
1373558192936,19.3136
1373558252936,19.3154
1373558312936,19.3630
1373558372936,19.3675
1373558432946,19.3349
1373558492946,19.3113
1373558552946,19.3658
1373558612946,19.3254
1373558672946,19.2811
1373558732946,19.2524
1373558792946,19.3434
1373558852946,19.3095
1373558912946,19.3413
1373558972946,19.2941
1373559032946,19.3319
1373559092946,19.3286
1373559152946,19.3295
1373559212946,19.3577
1373559272946,19.2896
1373559332946,19.3680
1373559392946,19.3581
1373559452946,19.3284
1373559512946,19.3607
1373559572946,19.3344
1373559632946,19.2982
1373559692946,19.3216
1373559752946,19.4042
1373559812946,19.3993
1373559872946,19.3748
1373559932946,19.3785
1373559992946,19.3901
1373560052946,19.3775
1373560112946,19.4039
1373560172946,19.3300
1373560232946,19.3772
1373560292946,19.3621
1373560352946,19.4012
1373560412946,19.3490
1373560472946,19.4017
1373560532946,19.3884
1373560592946,19.4221
1373560652946,19.4261
1373560712946,19.4596
1373560772946,19.3894
1373560832946,19.3912
1373560892946,19.4141
1373560952946,19.4347
1373561012946,19.4227
1373561072946,19.3535
1373561132946,19.4349
1373561192946,19.3844
1373561252946,19.4559
1373561312946,19.4605
1373561372946,19.4646
1373561432946,19.4686
1373561492946,19.3838
1373561552946,19.4758
1373561612946,19.5161
1373561672946,19.5370
1373561732946,19.5141
1373561792946,19.4770
1373561852946,19.4801
1373561912946,19.4308
1373561972946,19.4466
1373562032956,19.4829
1373562092956,19.4611
1373562152956,19.4372
1373562212956,19.4826
1373562272956,19.4987
1373562332956,19.4936
1373562392956,19.5520
1373562452956,19.5495
1373562512956,19.5616
1373562572956,19.4874
1373562632956,19.4991
1373562692956,19.5929
1373562752956,19.4786
1373562812956,19.5482
1373562872956,19.4739
1373562932956,19.5516
1373562992956,19.4775
1373563052956,19.5153
1373563112956,19.5227
1373563172956,19.5269
1373563232956,19.5806
1373563292956,19.4849
1373563352956,19.5042
1373563412956,19.5173
1373563472956,19.5209
1373563532956,19.4764
1373563592956,19.5348
1373563652956,19.5026
1373563712956,19.5150
1373563772956,19.5552
1373563832956,19.5513
1373563892956,19.5084
1373563952956,19.5382
1373564012956,19.5227
1373564072956,19.5169
1373564132956,19.4902
1373564192956,19.5676
1373564252956,19.5539
1373564312956,19.4888
1373564372956,19.5549
1373564432956,19.5109
1373564492956,19.4893
1373564552956,19.4578
1373564612956,19.4954
1373564672956,19.4088
1373564732956,19.5508
1373564792956,19.5410
1373564852956,19.5214
1373564912956,19.4804
1373564972956,19.5035
1373565032956,19.5097
1373565092956,19.5486
1373565152956,19.5992
1373565212956,19.6582
1373565272956,19.6328
1373565332956,19.6802
1373565392956,19.6689
1373565452956,19.5959
1373565512956,19.5988
1373565572956,19.5609
1373565632966,19.6671
1373565692966,19.5498
1373565752966,19.5844
1373565812966,19.5871
1373565872966,19.6379
1373565932966,19.5855
1373565992966,19.6337
1373566052966,19.5949
1373566112966,19.6209
1373566172966,19.5940
1373566232966,19.6015
1373566292966,19.5586
1373566352966,19.5849
1373566412966,19.5841
1373566472966,19.5396
1373566532966,19.5507
1373566592966,19.5964
1373566652966,19.5574